Tracking 17264 objects as of 29-August-2015
HD Live streaming from Space Station

N-1 R/B

Track N-1 R/B now!
10-day predictions
N-1 R/B is classified as:


NORAD ID: 8710
Int'l Code: 1976-019B
Perigee: 996.7 km
Apogee: 1,018.0 km
Inclination: 69.7 °
Period: 105.1 minutes
Semi major axis: 7378 km
RCS: 1.547 m2 (large)
Launch date: February 29, 1976
Source: Japan (JPN)

Note: This is a ROCKET BODY
Your satellite tracking list
Your tracking list is empty





NASA's NSSDC Master Catalog

Two Line Element Set (TLE):
1 08710U 76019B   15241.18100296 -.00000023  00000-0  32291-4 0  9996
2 08710 069.6765 127.6001 0014460 328.1064 200.8445 13.69821862975047

Source of the keplerian elements: AFSPC

N2YO: 249